OAO 2

Last updated on Wed Sep 17 2025 00:02:14 GMT+0000 (Coordinated Universal Time)

1 03597U 68110A 25259.44329658 .00000226 00000+0 66137-4 0 9990 2 03597 34.9924 157.9776 0006261 243.0711 116.9340 14.47162030993870
UTC large
Height (km)
Speed (km/s)
/
Latitude / Longitude
Inclination (degrees)
Orbital Period (minutes)
Azimuth
Elevation
Range (km)
Doppler Factor

Next 0 passes for location: London (51.5072 / 0.1276)

Sorry there are no passes over London.